FENGYUN 3D

Last updated on Sat Aug 15 2026 00:02:40 GMT+0000 (Coordinated Universal Time)

1 43010U 17072A 26226.57074030 -.00000084 00000+0 -17668-4 0 9994 2 43010 99.0178 202.0638 0000521 207.8689 152.2458 14.19748660453277
UTC large
Height (km)
Speed (km/s)
/
Latitude / Longitude
Inclination (degrees)
Orbital Period (minutes)
Azimuth
Elevation
Range (km)
Doppler Factor

Next 0 passes for location: London (51.5072 / 0.1276)

No passes found over London.
FENGYUN 3D